Weather History for Waupaca, WI

Change the Weather History Date:

Saturday, April 19, 2014

  Actual Average Record
Temperature  
Mean Temperature 38 °F -  
Max Temperature 44 °F 58 °F 87 °F (1985)
Min Temperature 33 °F 37 °F 18 °F (1983)
Degree Days  
Heating Degree Days 26    
Moisture  
Dew Point 27 °F    
Average Humidity 70    
Maximum Humidity 81    
Minimum Humidity 53    
Precipitation  
Precipitation 0.00 in - - ()
Sea Level Pressure  
Sea Level Pressure 30.41 in    
Wind  
Wind Speed 6 mph ()    
Max Wind Speed 15 mph    
Max Gust Speed 21 mph    
Visibility 10.0 miles    
Events      
Averages and records for this station are not official NWS values.
T = Trace of Precipitation, MM = Missing Value Source: Averaged Metar Reports

Daily Weather History Graph

Daily Weather History Graph

Search for Another Location

Airport:

Trip Planner

Search our weather history database for the weather conditions in past years. The results will help you decide how hot, cold, wet, or windy it might be!

Date:

Astronomy

Apr. 19, 2014 Rise Set
Actual Time 6:05 AM CDT 7:45 PM CDT
Civil Twilight 5:35 AM CDT 8:16 PM CDT
Nautical Twilight 4:57 AM CDT 8:53 PM CDT
Astronomical Twilight 4:17 AM CDT 9:33 PM CDT
Moon No Moon Rise 9:18 AM CDT
Length of Visible Light 14h 41m
Length of Day
13h 39m
Waning Gibbous, 78% of the Moon is Illuminated
Today
Waning Gibbous
Apr 22
Last Quarter
Apr 29
New
May 6
First Quarter
May 14
Full

Hourly Weather History & Observations

Time (CDT) Temp. Windchill Dew Point Humidity Pressure Visibility Wind Dir Wind Speed Gust Speed Precip Events Conditions
12:18 AM 35.6 °F 30.7 °F 26.6 °F 70% 30.39 in 10.0 mi ESE 5.8 mph - N/A   Clear
12:38 AM 35.6 °F 30.7 °F 26.6 °F 70% 30.40 in 10.0 mi ESE 5.8 mph - N/A   Clear
12:58 AM 35.6 °F 31.7 °F 26.6 °F 70% 30.40 in 10.0 mi East 4.6 mph - N/A   Clear
1:18 AM 35.6 °F 29.9 °F 26.6 °F 70% 30.40 in 10.0 mi East 6.9 mph - N/A   Clear
1:38 AM 35.6 °F 29.2 °F 26.6 °F 70% 30.40 in 10.0 mi East 8.1 mph - N/A   Clear
1:58 AM 35.6 °F 29.9 °F 26.6 °F 70% 30.40 in 10.0 mi East 6.9 mph - N/A   Clear
2:18 AM 35.6 °F 30.7 °F 26.6 °F 70% 30.41 in 10.0 mi East 5.8 mph - N/A   Clear
2:38 AM 35.6 °F 31.7 °F 26.6 °F 70% 30.41 in 10.0 mi East 4.6 mph - N/A   Clear
2:58 AM 35.6 °F 32.8 °F 26.6 °F 70% 30.42 in 10.0 mi East 3.5 mph - N/A   Clear
3:18 AM 35.6 °F 32.8 °F 26.6 °F 70% 30.42 in 10.0 mi ENE 3.5 mph - N/A   Clear
3:38 AM 33.8 °F 27.7 °F 26.6 °F 75% 30.42 in 10.0 mi ENE 6.9 mph - N/A   Clear
3:58 AM 33.8 °F 28.6 °F 26.6 °F 75% 30.42 in 10.0 mi East 5.8 mph - N/A   Clear
4:18 AM 33.8 °F 28.6 °F 26.6 °F 75% 30.42 in 10.0 mi East 5.8 mph - N/A   Clear
4:38 AM 33.8 °F 29.6 °F 26.6 °F 75% 30.41 in 10.0 mi East 4.6 mph - N/A   Clear
4:58 AM 33.8 °F 27.7 °F 26.6 °F 75% 30.41 in 10.0 mi ENE 6.9 mph - N/A   Clear
5:18 AM 33.8 °F 27.7 °F 26.6 °F 75% 30.41 in 10.0 mi East 6.9 mph - N/A   Clear
5:38 AM 33.8 °F 27.0 °F 26.6 °F 75% 30.41 in 10.0 mi East 8.1 mph - N/A   Clear
5:58 AM 33.8 °F 27.0 °F 26.6 °F 75% 30.41 in 10.0 mi East 8.1 mph - N/A   Clear
6:18 AM 33.8 °F 27.0 °F 26.6 °F 75% 30.41 in 10.0 mi East 8.1 mph - N/A   Clear
6:38 AM 33.8 °F 28.6 °F 26.6 °F 75% 30.42 in 10.0 mi East 5.8 mph - N/A   Clear
6:58 AM 33.8 °F 27.7 °F 28.4 °F 81% 30.43 in 10.0 mi East 6.9 mph - N/A   Clear
7:18 AM 33.8 °F 28.6 °F 28.4 °F 81% 30.43 in 10.0 mi East 5.8 mph - N/A   Clear
7:38 AM 35.6 °F 28.6 °F 28.4 °F 75% 30.42 in 10.0 mi East 9.2 mph - N/A   Clear
7:58 AM 37.4 °F 30.3 °F 28.4 °F 70% 30.41 in 10.0 mi ESE 10.4 mph - N/A   Clear
8:18 AM 37.4 °F 29.8 °F 28.4 °F 70% 30.41 in 10.0 mi ESE 11.5 mph - N/A   Clear
8:38 AM 39.2 °F 31.6 °F 28.4 °F 65% 30.40 in 10.0 mi ESE 12.7 mph - N/A   Clear
8:58 AM 39.2 °F 30.8 °F 28.4 °F 65% 30.39 in 10.0 mi ESE 15.0 mph 20.7 mph N/A   Clear
9:18 AM 41.0 °F 33.1 °F 28.4 °F 61% 30.38 in 10.0 mi SE 15.0 mph - N/A   Clear
9:38 AM 42.8 °F 36.2 °F 28.4 °F 57% 30.38 in 10.0 mi SE 12.7 mph 19.6 mph N/A   Clear
9:58 AM 44.6 °F 38.4 °F 28.4 °F 53% 30.37 in 10.0 mi ESE 12.7 mph 17.3 mph N/A   Clear
10:18 AM 44.6 °F 38.4 °F 28.4 °F 53% 30.37 in 10.0 mi SE 12.7 mph 18.4 mph N/A   Clear